OBJECT A, 62725

Orbit data source: Space-Track

You're viewing an Uncataloged Satellite

Recently launched and/or uncataloged satellites may have evolving metadata. Metadata may include but not limited to: Owner, Maufacturer, Bus, Motor, and Mission.

OBJECT A, 62725 is a satellite owned by SUPARCO (CN) in SSO that was launched on Fri, 17 Jan 2025 UTC via a CHANG ZHENG 2D launch vehicle from the Jiuquan Satellite Launch Center, China (JSC). Unknown objects in Earth's orbit typically refer to objects detected orbiting the Earth but have not yet been identified or cataloged. These objects could be anything from previously untracked satellites, spent rocket stages, debris from satellite collisions, or even natural meteoroids temporarily captured by Earth's gravity.

Loading next visibility...
OBJECT A details
Identifier
62725, 2025-012A
Orbit
SSO
Last TLE update9 hours ago
Origin
Flag of CNSUPARCO (CN / PRC)
ManufacturerSUPARCO
MissionOperational spacecraft
Bus & MotorPRSC-EO, Unknown motor
Mass~500 kg wet, ~500 kg dry
Launch date (UTC)
2025-01-17 (3 weeks ago)
Launch vehicle
CHANG ZHENG 2D
Launch site
Jiuquan Satellite Launch Center, China (JSC)
Object typeUnknown
Shape & HBRUnknown
Radar Cross SectionLarge (>1 m²)

Expand to show TLE details & history

TLE from 9 hours ago
0 OBJECT A
1 62725U 25012A   25035.78250831  .00015228  00000-0  82528-3 0  9997
2 62725  97.4769 111.4208 0009229 205.8165 154.2607 15.14650338  2779
Epoch: 2025-02-04T18:46Z
Definitive object data (Epoch: 2025-02-04T18:46:48.717Z)
Latitude-0.00012°
Longitude54.53497°
Altitude530.86 km
Speed7.594 km/s
True Right ascension07h 25m 40s
True Declination0° 00' 00"
Sunlit
Object was in full shadow at TLE epoch
Visualization TLE readout
Latitude-82.50292°
Longitude137.57329°
Altitude547.842 km
Speed7.588 km/s
Apparent Right ascension17h 17m 13s
Apparent Declination-64° 27' 55"
Sunlit
Object is in daylight
Visualization observer readout
Local Sidereal Time05:55:47
Azimuth170.232° S
Elevation-64.814°
Doppler factor1
Orbital elements
Apogee altitude525.382 km
Perigee altitude512.651 km
Semi-major axis6,897.153 km
Eccentricity0.0009229
Inclination97.4769°
RAAN111.4208°
Arg. of periapsis205.8165°
True anomaly154.30658°
Mean anomaly154.2607°
Eccentric anomaly154.28364°
Mean motion3.78912 °/min
BSTAR0.00082528
Orbital period95.01 mins
Loading maneuver chart data...
Loading historical data...
Loading historical data...
Loading historical data...
Loading historical data...
Loading historical data...
Loading historical data...
Loading historical data...
Other satellites on launch #12 in the year 2025 (2025-01-17 UTC)

OBJECT A Visibility forecast

Observer location: undefined°, undefined

Span
Click to sort rows by Start time (UTC) header in descending order
Start Az.
Max El. time (UTC)
Max El. Az.
Max El.
End time (UTC)
End Az.
6 mins2025-02-05 04:26:01.578Z131.822° SE2025-02-05 04:29:01.578Z59.143° ENE29.087°2025-02-05 04:32:01.578Z7.195° NNE
6 mins2025-02-05 17:33:01.578Z25.045° NE2025-02-05 17:36:01.578Z123.65° SE38.994°2025-02-05 17:39:01.578Z178.386° S
|